Year,Month,Day,Hour,Minute,Value (Times are PST for temperature in C)
2021,04,11,00,00,4.60
2021,04,11,00,01,4.60
2021,04,11,00,02,4.60
2021,04,11,00,03,4.60
2021,04,11,00,04,4.60
2021,04,11,00,05,4.60
2021,04,11,00,06,4.60
2021,04,11,00,07,4.60
2021,04,11,00,08,4.60
2021,04,11,00,09,4.50
2021,04,11,00,10,4.50
2021,04,11,00,11,4.40
2021,04,11,00,12,4.40
2021,04,11,00,13,4.40
2021,04,11,00,14,4.30
2021,04,11,00,15,4.30
2021,04,11,00,16,4.30
2021,04,11,00,17,4.30
2021,04,11,00,18,4.20
2021,04,11,00,19,4.20
2021,04,11,00,20,4.20
2021,04,11,00,21,4.20
2021,04,11,00,22,4.20
2021,04,11,00,23,4.20
2021,04,11,00,24,4.20
2021,04,11,00,25,4.20
2021,04,11,00,26,4.10
2021,04,11,00,27,4.10
2021,04,11,00,28,4.10
2021,04,11,00,29,4.00
2021,04,11,00,30,4.00
2021,04,11,00,31,4.00
2021,04,11,00,32,4.00
2021,04,11,00,33,3.90
2021,04,11,00,34,3.90
2021,04,11,00,35,3.90
2021,04,11,00,36,3.80
2021,04,11,00,37,3.80
2021,04,11,00,38,3.80
2021,04,11,00,39,3.80
2021,04,11,00,40,3.80
2021,04,11,00,41,3.80
2021,04,11,00,42,3.80
2021,04,11,00,43,3.80
2021,04,11,00,44,3.80
2021,04,11,00,45,3.80
2021,04,11,00,46,3.80
2021,04,11,00,47,3.80
2021,04,11,00,48,3.80
2021,04,11,00,49,3.80
2021,04,11,00,50,3.80
2021,04,11,00,51,3.70
2021,04,11,00,52,3.70
2021,04,11,00,53,3.70
2021,04,11,00,54,3.60
2021,04,11,00,55,3.60
2021,04,11,00,56,3.60
2021,04,11,00,57,3.50
2021,04,11,00,58,3.50
2021,04,11,00,59,3.50
2021,04,11,01,00,3.50
2021,04,11,01,01,3.50
2021,04,11,01,02,3.50
2021,04,11,01,03,3.50
2021,04,11,01,04,3.40
2021,04,11,01,05,3.40
2021,04,11,01,06,3.30
2021,04,11,01,07,3.30
2021,04,11,01,08,3.30
2021,04,11,01,09,3.30
2021,04,11,01,10,3.30
2021,04,11,01,11,3.30
2021,04,11,01,12,3.20
2021,04,11,01,13,3.20
2021,04,11,01,14,3.20
2021,04,11,01,15,3.20
2021,04,11,01,16,3.20
2021,04,11,01,17,3.30
2021,04,11,01,18,3.30
2021,04,11,01,19,3.30
2021,04,11,01,20,3.20
2021,04,11,01,21,3.20
2021,04,11,01,22,3.20
2021,04,11,01,23,3.10
2021,04,11,01,24,3.10
2021,04,11,01,25,3.10
2021,04,11,01,26,3.10
2021,04,11,01,27,3.10
2021,04,11,01,28,3.10
2021,04,11,01,29,3.10
2021,04,11,01,30,3.10
2021,04,11,01,31,3.10
2021,04,11,01,32,3.10
2021,04,11,01,33,3.00
2021,04,11,01,34,2.90
2021,04,11,01,35,2.90
2021,04,11,01,36,2.90
2021,04,11,01,37,2.90
2021,04,11,01,38,2.90
2021,04,11,01,39,2.90
2021,04,11,01,40,2.90
2021,04,11,01,41,2.80
2021,04,11,01,42,2.80
2021,04,11,01,43,2.70
2021,04,11,01,44,2.70
2021,04,11,01,45,2.60
2021,04,11,01,46,2.60
2021,04,11,01,47,2.50
2021,04,11,01,48,2.50
2021,04,11,01,49,2.40
2021,04,11,01,50,2.40
2021,04,11,01,51,2.40
2021,04,11,01,52,2.40
2021,04,11,01,53,2.40
2021,04,11,01,54,2.40
2021,04,11,01,55,2.40
2021,04,11,01,56,2.40
2021,04,11,01,57,2.30
2021,04,11,01,58,2.30
2021,04,11,01,59,2.40
2021,04,11,02,00,2.30
2021,04,11,02,01,2.30
2021,04,11,02,02,2.30
2021,04,11,02,03,2.30
2021,04,11,02,04,2.30
2021,04,11,02,05,2.40
2021,04,11,02,06,2.40
2021,04,11,02,07,2.50
2021,04,11,02,08,2.50
2021,04,11,02,09,2.50
2021,04,11,02,10,2.50
2021,04,11,02,11,2.50
2021,04,11,02,12,2.50
2021,04,11,02,13,2.50
2021,04,11,02,14,2.50
2021,04,11,02,15,2.50
2021,04,11,02,16,2.50
2021,04,11,02,17,2.60
2021,04,11,02,18,2.60
2021,04,11,02,19,2.60
2021,04,11,02,20,2.60
2021,04,11,02,21,2.60
2021,04,11,02,22,2.50
2021,04,11,02,23,2.50
2021,04,11,02,24,2.50
2021,04,11,02,25,2.40
2021,04,11,02,26,2.30
2021,04,11,02,27,2.20
2021,04,11,02,28,2.10
2021,04,11,02,29,2.00
2021,04,11,02,30,1.90
2021,04,11,02,31,1.90
2021,04,11,02,32,1.90
2021,04,11,02,33,1.90
2021,04,11,02,34,1.90
2021,04,11,02,35,1.90
2021,04,11,02,36,1.90
2021,04,11,02,37,1.90
2021,04,11,02,38,1.90
2021,04,11,02,39,1.90
2021,04,11,02,40,1.80
2021,04,11,02,41,1.80
2021,04,11,02,42,1.80
2021,04,11,02,43,1.80
2021,04,11,02,44,1.80
2021,04,11,02,45,1.80
2021,04,11,02,46,1.80
2021,04,11,02,47,1.80
2021,04,11,02,48,1.80
2021,04,11,02,49,1.70
2021,04,11,02,50,1.70
2021,04,11,02,51,1.60
2021,04,11,02,52,1.50
2021,04,11,02,53,1.50
2021,04,11,02,54,1.50
2021,04,11,02,55,1.40
2021,04,11,02,56,1.30
2021,04,11,02,57,1.30
2021,04,11,02,58,1.20
2021,04,11,02,59,1.20
2021,04,11,03,00,1.10
2021,04,11,03,01,1.10
2021,04,11,03,02,1.00
2021,04,11,03,03,1.00
2021,04,11,03,04,1.00
2021,04,11,03,05,0.90
2021,04,11,03,06,0.90
2021,04,11,03,07,0.90
2021,04,11,03,08,0.80
2021,04,11,03,09,0.80
2021,04,11,03,10,0.80
2021,04,11,03,11,0.80
2021,04,11,03,12,0.80
2021,04,11,03,13,0.80
2021,04,11,03,14,0.80
2021,04,11,03,15,0.80
2021,04,11,03,16,0.80
2021,04,11,03,17,0.80
2021,04,11,03,18,0.80
2021,04,11,03,19,0.70
2021,04,11,03,20,0.70
2021,04,11,03,21,0.70
2021,04,11,03,22,0.60
2021,04,11,03,23,0.60
2021,04,11,03,24,0.60
2021,04,11,03,25,0.60
2021,04,11,03,26,0.60
2021,04,11,03,27,0.60
2021,04,11,03,28,0.50
2021,04,11,03,29,0.50
2021,04,11,03,30,0.50
2021,04,11,03,31,0.50
2021,04,11,03,32,0.50
2021,04,11,03,33,0.50
2021,04,11,03,34,0.50
2021,04,11,03,35,0.50
2021,04,11,03,36,0.50
2021,04,11,03,37,0.50
2021,04,11,03,38,0.40
2021,04,11,03,39,0.40
2021,04,11,03,40,0.40
2021,04,11,03,41,0.40
2021,04,11,03,42,0.40
2021,04,11,03,43,0.40
2021,04,11,03,44,0.40
2021,04,11,03,45,0.40
2021,04,11,03,46,0.40
2021,04,11,03,47,0.40
2021,04,11,03,48,0.40
2021,04,11,03,49,0.40
2021,04,11,03,50,0.40
2021,04,11,03,51,0.40
2021,04,11,03,52,0.40
2021,04,11,03,53,0.40
2021,04,11,03,54,0.40
2021,04,11,03,55,0.40
2021,04,11,03,56,0.40
2021,04,11,03,57,0.40
2021,04,11,03,58,0.40
2021,04,11,03,59,0.30
2021,04,11,04,00,0.30
2021,04,11,04,01,0.30
2021,04,11,04,02,0.30
2021,04,11,04,03,0.30
2021,04,11,04,04,0.30
2021,04,11,04,05,0.30
2021,04,11,04,06,0.30
2021,04,11,04,07,0.30
2021,04,11,04,08,0.30
2021,04,11,04,09,0.40
2021,04,11,04,10,0.40
2021,04,11,04,11,0.30
2021,04,11,04,12,0.30
2021,04,11,04,13,0.30
2021,04,11,04,14,0.30
2021,04,11,04,15,0.30
2021,04,11,04,16,0.20
2021,04,11,04,17,0.20
2021,04,11,04,18,0.20
2021,04,11,04,19,0.20
2021,04,11,04,20,0.20
2021,04,11,04,21,0.10
2021,04,11,04,22,0.10
2021,04,11,04,23,0.20
2021,04,11,04,24,0.10
2021,04,11,04,25,0.10
2021,04,11,04,26,0.10
2021,04,11,04,27,0.10
2021,04,11,04,28,0.10
2021,04,11,04,29,0.10
2021,04,11,04,30,0.10
2021,04,11,04,31,0.10
2021,04,11,04,32,0.00
2021,04,11,04,33,-0.10
2021,04,11,04,34,-0.10
2021,04,11,04,35,-0.10
2021,04,11,04,36,-0.10
2021,04,11,04,37,-0.10
2021,04,11,04,38,-0.10
2021,04,11,04,39,-0.10
2021,04,11,04,40,-0.10
2021,04,11,04,41,-0.10
2021,04,11,04,42,-0.10
2021,04,11,04,43,-0.10
2021,04,11,04,44,-0.10
2021,04,11,04,45,-0.10
2021,04,11,04,46,-0.10
2021,04,11,04,47,-0.10
2021,04,11,04,48,-0.10
2021,04,11,04,49,-0.10
2021,04,11,04,50,-0.10
2021,04,11,04,51,-0.10
2021,04,11,04,52,-0.10
2021,04,11,04,53,-0.10
2021,04,11,04,54,-0.10
2021,04,11,04,55,-0.20
2021,04,11,04,56,-0.20
2021,04,11,04,57,-0.20
2021,04,11,04,58,-0.20
2021,04,11,04,59,-0.20
2021,04,11,05,00,-0.20
2021,04,11,05,01,-0.20
2021,04,11,05,02,-0.20
2021,04,11,05,03,-0.20
2021,04,11,05,04,-0.20
2021,04,11,05,05,-0.20
2021,04,11,05,06,-0.20
2021,04,11,05,07,-0.20
2021,04,11,05,08,-0.20
2021,04,11,05,09,-0.20
2021,04,11,05,10,-0.20
2021,04,11,05,11,-0.30
2021,04,11,05,12,-0.20
2021,04,11,05,13,-0.20
2021,04,11,05,14,-0.20
2021,04,11,05,15,-0.20
2021,04,11,05,16,-0.20
2021,04,11,05,17,-0.20
2021,04,11,05,18,-0.20
2021,04,11,05,19,-0.20
2021,04,11,05,20,-0.30
2021,04,11,05,21,-0.30
2021,04,11,05,22,-0.30
2021,04,11,05,23,-0.40
2021,04,11,05,24,-0.40
2021,04,11,05,25,-0.40
2021,04,11,05,26,-0.40
2021,04,11,05,27,-0.40
2021,04,11,05,28,-0.40
2021,04,11,05,29,-0.40
2021,04,11,05,30,-0.40
2021,04,11,05,31,-0.30
2021,04,11,05,32,-0.30
2021,04,11,05,33,-0.30
2021,04,11,05,34,-0.30
2021,04,11,05,35,-0.30
2021,04,11,05,36,-0.30
2021,04,11,05,37,-0.30
2021,04,11,05,38,-0.30
2021,04,11,05,39,-0.30
2021,04,11,05,40,-0.30
2021,04,11,05,41,-0.40
2021,04,11,05,42,-0.40
2021,04,11,05,43,-0.40
2021,04,11,05,44,-0.40
2021,04,11,05,45,-0.40
2021,04,11,05,46,-0.40
2021,04,11,05,47,-0.40
2021,04,11,05,48,-0.50
2021,04,11,05,49,-0.60
2021,04,11,05,50,-0.50
2021,04,11,05,51,-0.40
2021,04,11,05,52,-0.40
2021,04,11,05,53,-0.40
2021,04,11,05,54,-0.40
2021,04,11,05,55,-0.40
2021,04,11,05,56,-0.40
2021,04,11,05,57,-0.40
2021,04,11,05,58,-0.40
2021,04,11,05,59,-0.40
2021,04,11,06,00,-0.40
2021,04,11,06,01,-0.40
2021,04,11,06,02,-0.50
2021,04,11,06,03,-0.60
2021,04,11,06,04,-0.60
2021,04,11,06,05,-0.60
2021,04,11,06,06,-0.70
2021,04,11,06,07,-0.70
2021,04,11,06,08,-0.70
2021,04,11,06,09,-0.70
2021,04,11,06,10,-0.70
2021,04,11,06,11,-0.70
2021,04,11,06,12,-0.60
2021,04,11,06,13,-0.60
2021,04,11,06,14,-0.60
2021,04,11,06,15,-0.60
2021,04,11,06,16,-0.60
2021,04,11,06,17,-0.60
2021,04,11,06,18,-0.70
2021,04,11,06,19,-0.70
2021,04,11,06,20,-0.70
2021,04,11,06,21,-0.70
2021,04,11,06,22,-0.70
2021,04,11,06,23,-0.80
2021,04,11,06,24,-0.80
2021,04,11,06,25,-0.90
2021,04,11,06,26,-0.90
2021,04,11,06,27,-0.90
2021,04,11,06,28,-0.90
2021,04,11,06,29,-0.90
2021,04,11,06,30,-0.90
2021,04,11,06,31,-0.90
2021,04,11,06,32,-0.90
2021,04,11,06,33,-0.90
2021,04,11,06,34,-0.90
2021,04,11,06,35,-0.90
2021,04,11,06,36,-0.90
2021,04,11,06,37,-0.90
2021,04,11,06,38,-0.90
2021,04,11,06,39,-0.90
2021,04,11,06,40,-0.90
2021,04,11,06,41,-0.90
2021,04,11,06,42,-0.90
2021,04,11,06,43,-0.90
2021,04,11,06,44,-0.90
2021,04,11,06,45,-0.90
2021,04,11,06,46,-0.80
2021,04,11,06,47,-0.80
2021,04,11,06,48,-0.80
2021,04,11,06,49,-0.80
2021,04,11,06,50,-0.70
2021,04,11,06,51,-0.70
2021,04,11,06,52,-0.70
2021,04,11,06,53,-0.60
2021,04,11,06,54,-0.60
2021,04,11,06,55,-0.60
2021,04,11,06,56,-0.60
2021,04,11,06,57,-0.60
2021,04,11,06,58,-0.60
2021,04,11,06,59,-0.60
2021,04,11,07,00,-0.60
2021,04,11,07,01,-0.60
2021,04,11,07,02,-0.60
2021,04,11,07,03,-0.60
2021,04,11,07,04,-0.60
2021,04,11,07,05,-0.60
2021,04,11,07,06,-0.60
2021,04,11,07,07,-0.60
2021,04,11,07,08,-0.60
2021,04,11,07,09,-0.60
2021,04,11,07,10,-0.60
2021,04,11,07,11,-0.50
2021,04,11,07,12,-0.40
2021,04,11,07,13,-0.40
2021,04,11,07,14,-0.40
2021,04,11,07,15,-0.30
2021,04,11,07,16,-0.20
2021,04,11,07,17,-0.20
2021,04,11,07,18,-0.20
2021,04,11,07,19,-0.10
2021,04,11,07,20,-0.10
2021,04,11,07,21,0.00
2021,04,11,07,22,0.10
2021,04,11,07,23,0.10
2021,04,11,07,24,0.20
2021,04,11,07,25,0.30
2021,04,11,07,26,0.30
2021,04,11,07,27,0.40
2021,04,11,07,28,0.40
2021,04,11,07,29,0.50
2021,04,11,07,30,0.60
2021,04,11,07,31,0.60
2021,04,11,07,32,0.70
2021,04,11,07,33,0.80
2021,04,11,07,34,0.80
2021,04,11,07,35,0.80
2021,04,11,07,36,0.90
2021,04,11,07,37,0.90
2021,04,11,07,38,1.00
2021,04,11,07,39,1.00
2021,04,11,07,40,1.10
2021,04,11,07,41,1.10
2021,04,11,07,42,1.20
2021,04,11,07,43,1.30
2021,04,11,07,44,1.30
2021,04,11,07,45,1.30
2021,04,11,07,46,1.40
2021,04,11,07,47,1.40
2021,04,11,07,48,1.50
2021,04,11,07,49,1.60
2021,04,11,07,50,1.70
2021,04,11,07,51,1.80
2021,04,11,07,52,1.80
2021,04,11,07,53,2.00
2021,04,11,07,54,2.00
2021,04,11,07,55,2.10
2021,04,11,07,56,2.20
2021,04,11,07,57,2.20
2021,04,11,07,58,2.30
2021,04,11,07,59,2.40
2021,04,11,08,00,2.50
2021,04,11,08,01,2.50
2021,04,11,08,02,2.60
2021,04,11,08,03,2.70
2021,04,11,08,04,2.80
2021,04,11,08,05,2.80
2021,04,11,08,06,2.90
2021,04,11,08,07,3.00
2021,04,11,08,08,3.10
2021,04,11,08,09,3.10
2021,04,11,08,10,3.20
2021,04,11,08,11,3.30
2021,04,11,08,12,3.30
2021,04,11,08,13,3.40
2021,04,11,08,14,3.50
2021,04,11,08,15,3.60
2021,04,11,08,16,3.70
2021,04,11,08,17,3.80
2021,04,11,08,18,3.90
2021,04,11,08,19,4.00
2021,04,11,08,20,4.10
2021,04,11,08,21,4.20
2021,04,11,08,22,4.30
2021,04,11,08,23,4.40
2021,04,11,08,24,4.50
2021,04,11,08,25,4.60
2021,04,11,08,26,4.60
2021,04,11,08,27,4.70
2021,04,11,08,28,4.80
2021,04,11,08,29,4.90
2021,04,11,08,30,4.90
2021,04,11,08,31,4.90
2021,04,11,08,32,4.90
2021,04,11,08,33,4.90
2021,04,11,08,34,5.00
2021,04,11,08,35,5.10
2021,04,11,08,36,5.10
2021,04,11,08,37,5.10
2021,04,11,08,38,5.20
2021,04,11,08,39,5.20
2021,04,11,08,40,5.30
2021,04,11,08,41,5.30
2021,04,11,08,42,5.40
2021,04,11,08,43,5.40
2021,04,11,08,44,5.50
2021,04,11,08,45,5.60
2021,04,11,08,46,5.70
2021,04,11,08,47,5.70
2021,04,11,08,48,5.70
2021,04,11,08,49,5.70
2021,04,11,08,50,5.80
2021,04,11,08,51,5.80
2021,04,11,08,52,5.80
2021,04,11,08,53,5.80
2021,04,11,08,54,5.80
2021,04,11,08,55,5.80
2021,04,11,08,56,5.80
2021,04,11,08,57,5.80
2021,04,11,08,58,5.80
2021,04,11,08,59,5.80
2021,04,11,09,00,5.80
2021,04,11,09,01,5.80
2021,04,11,09,02,5.80
2021,04,11,09,03,5.90
2021,04,11,09,04,5.90
2021,04,11,09,05,5.90
2021,04,11,09,06,5.90
2021,04,11,09,07,5.90
2021,04,11,09,08,5.90
2021,04,11,09,09,5.90
2021,04,11,09,10,5.90
2021,04,11,09,11,5.90
2021,04,11,09,12,5.90
2021,04,11,09,13,5.90
2021,04,11,09,14,5.90
2021,04,11,09,15,6.00
2021,04,11,09,16,6.00
2021,04,11,09,17,6.00
2021,04,11,09,18,6.10
2021,04,11,09,19,6.20
2021,04,11,09,20,6.20
2021,04,11,09,21,6.20
2021,04,11,09,22,6.20
2021,04,11,09,23,6.20
2021,04,11,09,24,6.20
2021,04,11,09,25,6.20
2021,04,11,09,26,6.20
2021,04,11,09,27,6.10
2021,04,11,09,28,6.10
2021,04,11,09,29,6.10
2021,04,11,09,30,6.10
2021,04,11,09,31,6.10
2021,04,11,09,32,6.10
2021,04,11,09,33,6.20
2021,04,11,09,34,6.20
2021,04,11,09,35,6.30
2021,04,11,09,36,6.30
2021,04,11,09,37,6.40
2021,04,11,09,38,6.40
2021,04,11,09,39,6.60
2021,04,11,09,40,6.60
2021,04,11,09,41,6.70
2021,04,11,09,42,6.70
2021,04,11,09,43,6.70
2021,04,11,09,44,6.80
2021,04,11,09,45,6.80
2021,04,11,09,46,6.80
2021,04,11,09,47,6.90
2021,04,11,09,48,6.90
2021,04,11,09,49,6.90
2021,04,11,09,50,6.90
2021,04,11,09,51,6.90
2021,04,11,09,52,6.90
2021,04,11,09,53,6.80
2021,04,11,09,54,6.80
2021,04,11,09,55,6.80
2021,04,11,09,56,6.80
2021,04,11,09,57,6.80
2021,04,11,09,58,6.80
2021,04,11,09,59,6.80
2021,04,11,10,00,6.80
2021,04,11,10,01,6.80
2021,04,11,10,02,6.80
2021,04,11,10,03,6.80
2021,04,11,10,04,6.80
2021,04,11,10,05,6.80
2021,04,11,10,06,6.80
2021,04,11,10,07,6.70
2021,04,11,10,08,6.70
2021,04,11,10,09,6.70
2021,04,11,10,10,6.70
2021,04,11,10,11,6.70
2021,04,11,10,12,6.80
2021,04,11,10,13,6.80
2021,04,11,10,14,6.80
2021,04,11,10,15,6.80
2021,04,11,10,16,6.80
2021,04,11,10,17,6.90
2021,04,11,10,18,7.00
2021,04,11,10,19,7.00
2021,04,11,10,20,7.10
2021,04,11,10,21,7.10
2021,04,11,10,22,7.30
2021,04,11,10,23,7.30
2021,04,11,10,24,7.30
2021,04,11,10,25,7.30
2021,04,11,10,26,7.20
2021,04,11,10,27,7.20
2021,04,11,10,28,7.20
2021,04,11,10,29,7.20
2021,04,11,10,30,7.10
2021,04,11,10,31,7.10
2021,04,11,10,32,7.10
2021,04,11,10,33,7.10
2021,04,11,10,34,7.00
2021,04,11,10,35,6.90
2021,04,11,10,36,6.90
2021,04,11,10,37,6.80
2021,04,11,10,38,6.80
2021,04,11,10,39,6.80
2021,04,11,10,40,6.80
2021,04,11,10,41,6.80
2021,04,11,10,42,6.80
2021,04,11,10,43,6.80
2021,04,11,10,44,6.80
2021,04,11,10,45,6.80
2021,04,11,10,46,6.80
2021,04,11,10,47,6.80
2021,04,11,10,48,6.80
2021,04,11,10,49,6.80
2021,04,11,10,50,6.80
2021,04,11,10,51,6.90
2021,04,11,10,52,7.00
2021,04,11,10,53,6.90
2021,04,11,10,54,6.80
2021,04,11,10,55,6.80
2021,04,11,10,56,6.80
2021,04,11,10,57,6.80
2021,04,11,10,58,6.70
2021,04,11,10,59,6.70
2021,04,11,11,00,6.80
2021,04,11,11,01,6.80
2021,04,11,11,02,6.80
2021,04,11,11,03,6.80
2021,04,11,11,04,6.80
2021,04,11,11,05,6.80
2021,04,11,11,06,6.80
2021,04,11,11,07,6.90
2021,04,11,11,08,6.90
2021,04,11,11,09,7.00
2021,04,11,11,10,7.10
2021,04,11,11,11,7.10
2021,04,11,11,12,7.10
2021,04,11,11,13,7.20
2021,04,11,11,14,7.20
2021,04,11,11,15,7.20
2021,04,11,11,16,7.20
2021,04,11,11,17,7.20
2021,04,11,11,18,7.20
2021,04,11,11,19,7.30
2021,04,11,11,20,7.40
2021,04,11,11,21,7.40
2021,04,11,11,22,7.40
2021,04,11,11,23,7.40
2021,04,11,11,24,7.50
2021,04,11,11,25,7.50
2021,04,11,11,26,7.60
2021,04,11,11,27,7.70
2021,04,11,11,28,7.70
2021,04,11,11,29,7.70
2021,04,11,11,30,7.70
2021,04,11,11,31,7.70
2021,04,11,11,32,7.70
2021,04,11,11,33,7.70
2021,04,11,11,34,7.70
2021,04,11,11,35,7.60
2021,04,11,11,36,7.60
2021,04,11,11,37,7.60
2021,04,11,11,38,7.60
2021,04,11,11,39,7.50
2021,04,11,11,40,7.40
2021,04,11,11,41,7.30
2021,04,11,11,42,7.30
2021,04,11,11,43,7.40
2021,04,11,11,44,7.40
2021,04,11,11,45,7.30
2021,04,11,11,46,7.40
2021,04,11,11,47,7.50
2021,04,11,11,48,7.60
2021,04,11,11,49,7.60
2021,04,11,11,50,7.50
2021,04,11,11,51,7.50
2021,04,11,11,52,7.50
2021,04,11,11,53,7.50
2021,04,11,11,54,7.60
2021,04,11,11,55,7.60
2021,04,11,11,56,7.50
2021,04,11,11,57,7.50
2021,04,11,11,58,7.50
2021,04,11,11,59,7.50
2021,04,11,12,00,7.60
2021,04,11,12,01,7.70
2021,04,11,12,02,7.80
2021,04,11,12,03,7.90
2021,04,11,12,04,7.90
2021,04,11,12,05,7.90
2021,04,11,12,06,8.00
2021,04,11,12,07,8.10
2021,04,11,12,08,8.10
2021,04,11,12,09,8.10
2021,04,11,12,10,8.00
2021,04,11,12,11,8.00
2021,04,11,12,12,8.00
2021,04,11,12,13,7.90
2021,04,11,12,14,7.80
2021,04,11,12,15,7.80
2021,04,11,12,16,7.80
2021,04,11,12,17,7.80
2021,04,11,12,18,7.70
2021,04,11,12,19,7.60
2021,04,11,12,20,7.60
2021,04,11,12,21,7.60
2021,04,11,12,22,7.70
2021,04,11,12,23,7.80
2021,04,11,12,24,7.80
2021,04,11,12,25,7.90
2021,04,11,12,26,8.00
2021,04,11,12,27,8.10
2021,04,11,12,28,8.00
2021,04,11,12,29,7.90
2021,04,11,12,30,7.90
2021,04,11,12,31,7.80
2021,04,11,12,32,7.80
2021,04,11,12,33,7.80
2021,04,11,12,34,7.80
2021,04,11,12,35,7.80
2021,04,11,12,36,7.90
2021,04,11,12,37,8.00
2021,04,11,12,38,8.00
2021,04,11,12,39,8.00
2021,04,11,12,40,8.00
2021,04,11,12,41,8.00
2021,04,11,12,42,8.10
2021,04,11,12,43,8.20
2021,04,11,12,44,8.10
2021,04,11,12,45,8.00
2021,04,11,12,46,8.10
2021,04,11,12,47,8.00
2021,04,11,12,48,7.90
2021,04,11,12,49,7.90
2021,04,11,12,50,7.80
2021,04,11,12,51,7.80
2021,04,11,12,52,7.80
2021,04,11,12,53,7.80
2021,04,11,12,54,7.80
2021,04,11,12,55,7.80
2021,04,11,12,56,7.90
2021,04,11,12,57,8.00
2021,04,11,12,58,8.00
2021,04,11,12,59,8.00
2021,04,11,13,00,8.10
2021,04,11,13,01,8.10
2021,04,11,13,02,8.20
2021,04,11,13,03,8.30
2021,04,11,13,04,8.40
2021,04,11,13,05,8.30
2021,04,11,13,06,8.20
2021,04,11,13,07,8.20
2021,04,11,13,08,8.10
2021,04,11,13,09,8.10
2021,04,11,13,10,8.10
2021,04,11,13,11,8.10
2021,04,11,13,12,8.00
2021,04,11,13,13,8.00
2021,04,11,13,14,8.10
2021,04,11,13,15,8.10
2021,04,11,13,16,8.20
2021,04,11,13,17,8.20
2021,04,11,13,18,8.30
2021,04,11,13,19,8.30
2021,04,11,13,20,8.30
2021,04,11,13,21,8.30
2021,04,11,13,22,8.30
2021,04,11,13,23,8.30
2021,04,11,13,24,8.30
2021,04,11,13,25,8.30
2021,04,11,13,26,8.30
2021,04,11,13,27,8.30
2021,04,11,13,28,8.30
2021,04,11,13,29,8.20
2021,04,11,13,30,8.30
2021,04,11,13,31,8.30
2021,04,11,13,32,8.40
2021,04,11,13,33,8.40
2021,04,11,13,34,8.40
2021,04,11,13,35,8.50
2021,04,11,13,36,8.60
2021,04,11,13,37,8.70
2021,04,11,13,38,8.70
2021,04,11,13,39,8.60
2021,04,11,13,40,8.60
2021,04,11,13,41,8.60
2021,04,11,13,42,8.70
2021,04,11,13,43,8.70
2021,04,11,13,44,8.70
2021,04,11,13,45,8.60
2021,04,11,13,46,8.60
2021,04,11,13,47,8.60
2021,04,11,13,48,8.70
2021,04,11,13,49,8.80
2021,04,11,13,50,8.70
2021,04,11,13,51,8.70
2021,04,11,13,52,8.70
2021,04,11,13,53,8.70
2021,04,11,13,54,8.70
2021,04,11,13,55,8.70
2021,04,11,13,56,8.70
2021,04,11,13,57,8.70
2021,04,11,13,58,8.70
2021,04,11,13,59,8.60
2021,04,11,14,00,8.60
2021,04,11,14,01,8.60
2021,04,11,14,02,8.60
2021,04,11,14,03,8.70
2021,04,11,14,04,8.70
2021,04,11,14,05,8.70
2021,04,11,14,06,8.90
2021,04,11,14,07,9.00
2021,04,11,14,08,9.00
2021,04,11,14,09,9.00
2021,04,11,14,10,9.10
2021,04,11,14,11,9.10
2021,04,11,14,12,9.10
2021,04,11,14,13,9.10
2021,04,11,14,14,9.10
2021,04,11,14,15,9.10
2021,04,11,14,16,9.10
2021,04,11,14,17,9.00
2021,04,11,14,18,8.80
2021,04,11,14,19,8.70
2021,04,11,14,20,8.70
2021,04,11,14,21,8.80
2021,04,11,14,22,8.90
2021,04,11,14,23,9.00
2021,04,11,14,24,9.00
2021,04,11,14,25,9.00
2021,04,11,14,26,9.20
2021,04,11,14,27,9.20
2021,04,11,14,28,9.30
2021,04,11,14,29,9.30
2021,04,11,14,30,9.20
2021,04,11,14,31,9.00
2021,04,11,14,32,8.90
2021,04,11,14,33,8.90
2021,04,11,14,34,8.70
2021,04,11,14,35,8.60
2021,04,11,14,36,8.60
2021,04,11,14,37,8.60
2021,04,11,14,38,8.50
2021,04,11,14,39,8.50
2021,04,11,14,40,8.50
2021,04,11,14,41,8.40
2021,04,11,14,42,8.40
2021,04,11,14,43,8.40
2021,04,11,14,44,8.50
2021,04,11,14,45,8.70
2021,04,11,14,46,8.70
2021,04,11,14,47,8.70
2021,04,11,14,48,8.70
2021,04,11,14,49,8.70
2021,04,11,14,50,8.70
2021,04,11,14,51,8.70
2021,04,11,14,52,8.70
2021,04,11,14,53,8.70
2021,04,11,14,54,8.70
2021,04,11,14,55,8.70
2021,04,11,14,56,8.70
2021,04,11,14,57,8.80
2021,04,11,14,58,8.80
2021,04,11,14,59,8.80
2021,04,11,15,00,8.80
2021,04,11,15,01,8.80
2021,04,11,15,02,8.90
2021,04,11,15,03,8.90
2021,04,11,15,04,9.00
2021,04,11,15,05,9.10
2021,04,11,15,06,9.10
2021,04,11,15,07,9.20
2021,04,11,15,08,9.20
2021,04,11,15,09,9.20
2021,04,11,15,10,9.10
2021,04,11,15,11,9.00
2021,04,11,15,12,9.00
2021,04,11,15,13,9.00
2021,04,11,15,14,9.00
2021,04,11,15,15,9.00
2021,04,11,15,16,9.10
2021,04,11,15,17,9.10
2021,04,11,15,18,9.10
2021,04,11,15,19,9.10
2021,04,11,15,20,9.10
2021,04,11,15,21,9.20
2021,04,11,15,22,9.30
2021,04,11,15,23,9.40
2021,04,11,15,24,9.50
2021,04,11,15,25,9.50
2021,04,11,15,26,9.40
2021,04,11,15,27,9.20
2021,04,11,15,28,9.10
2021,04,11,15,29,9.10
2021,04,11,15,30,9.00
2021,04,11,15,31,9.00
2021,04,11,15,32,9.10
2021,04,11,15,33,9.20
2021,04,11,15,34,9.20
2021,04,11,15,35,9.10
2021,04,11,15,36,9.20
2021,04,11,15,37,9.20
2021,04,11,15,38,9.10
2021,04,11,15,39,9.00
2021,04,11,15,40,8.90
2021,04,11,15,41,8.80
2021,04,11,15,42,8.70
2021,04,11,15,43,8.70
2021,04,11,15,44,8.70
2021,04,11,15,45,8.80
2021,04,11,15,46,8.90
2021,04,11,15,47,9.00
2021,04,11,15,48,9.20
2021,04,11,15,49,9.30
2021,04,11,15,50,9.40
2021,04,11,15,51,9.40
2021,04,11,15,52,9.40
2021,04,11,15,53,9.40
2021,04,11,15,54,9.30
2021,04,11,15,55,9.30
2021,04,11,15,56,9.20
2021,04,11,15,57,9.30
2021,04,11,15,58,9.20
2021,04,11,15,59,9.20
2021,04,11,16,00,9.20
2021,04,11,16,01,9.20
2021,04,11,16,02,9.20
2021,04,11,16,03,9.20
2021,04,11,16,04,9.20
2021,04,11,16,05,9.20
2021,04,11,16,06,9.20
2021,04,11,16,07,9.20
2021,04,11,16,08,9.20
2021,04,11,16,09,9.20
2021,04,11,16,10,9.20
2021,04,11,16,11,9.20
2021,04,11,16,12,9.30
2021,04,11,16,13,9.40
2021,04,11,16,14,9.40
2021,04,11,16,15,9.50
2021,04,11,16,16,9.50
2021,04,11,16,17,9.50
2021,04,11,16,18,9.60
2021,04,11,16,19,9.60
2021,04,11,16,20,9.60
2021,04,11,16,21,9.60
2021,04,11,16,22,9.70
2021,04,11,16,23,9.70
2021,04,11,16,24,9.70
2021,04,11,16,25,9.60
2021,04,11,16,26,9.60
2021,04,11,16,27,9.50
2021,04,11,16,28,9.40
2021,04,11,16,29,9.40
2021,04,11,16,30,9.40
2021,04,11,16,31,9.40
2021,04,11,16,32,9.30
2021,04,11,16,33,9.30
2021,04,11,16,34,9.30
2021,04,11,16,35,9.30
2021,04,11,16,36,9.20
2021,04,11,16,37,9.20
2021,04,11,16,38,9.20
2021,04,11,16,39,9.10
2021,04,11,16,40,9.10
2021,04,11,16,41,9.20
2021,04,11,16,42,9.30
2021,04,11,16,43,9.40
2021,04,11,16,44,9.50
2021,04,11,16,45,9.50
2021,04,11,16,46,9.60
2021,04,11,16,47,9.70
2021,04,11,16,48,9.70
2021,04,11,16,49,9.80
2021,04,11,16,50,9.90
2021,04,11,16,51,9.90
2021,04,11,16,52,9.90
2021,04,11,16,53,9.90
2021,04,11,16,54,9.90
2021,04,11,16,55,9.80
2021,04,11,16,56,9.80
2021,04,11,16,57,9.80
2021,04,11,16,58,9.80
2021,04,11,16,59,9.80
2021,04,11,17,00,9.80
2021,04,11,17,01,9.90
2021,04,11,17,02,9.80
2021,04,11,17,03,9.80
2021,04,11,17,04,9.70
2021,04,11,17,05,9.70
2021,04,11,17,06,9.70
2021,04,11,17,07,9.70
2021,04,11,17,08,9.70
2021,04,11,17,09,9.70
2021,04,11,17,10,9.70
2021,04,11,17,11,9.70
2021,04,11,17,12,9.80
2021,04,11,17,13,9.80
2021,04,11,17,14,9.80
2021,04,11,17,15,9.70
2021,04,11,17,16,9.70
2021,04,11,17,17,9.70
2021,04,11,17,18,9.70
2021,04,11,17,19,9.70
2021,04,11,17,20,9.70
2021,04,11,17,21,9.70
2021,04,11,17,22,9.70
2021,04,11,17,23,9.70
2021,04,11,17,24,9.70
2021,04,11,17,25,9.70
2021,04,11,17,26,9.70
2021,04,11,17,27,9.70
2021,04,11,17,28,9.70
2021,04,11,17,29,9.60
2021,04,11,17,30,9.60
2021,04,11,17,31,9.50
2021,04,11,17,32,9.50
2021,04,11,17,33,9.50
2021,04,11,17,34,9.40
2021,04,11,17,35,9.40
2021,04,11,17,36,9.30
2021,04,11,17,37,9.30
2021,04,11,17,38,9.30
2021,04,11,17,39,9.20
2021,04,11,17,40,9.20
2021,04,11,17,41,9.20
2021,04,11,17,42,9.20
2021,04,11,17,43,9.10
2021,04,11,17,44,9.20
2021,04,11,17,45,9.20
2021,04,11,17,46,9.20
2021,04,11,17,47,9.20
2021,04,11,17,48,9.20
2021,04,11,17,49,9.20
2021,04,11,17,50,9.20
2021,04,11,17,51,9.20
2021,04,11,17,52,9.20
2021,04,11,17,53,9.20
2021,04,11,17,54,9.10
2021,04,11,17,55,9.10
2021,04,11,17,56,9.20
2021,04,11,17,57,9.20
2021,04,11,17,58,9.20
2021,04,11,17,59,9.20